Location: Penticton
(49.5000°N, 119.5830°W)
Time: 01:14:56
(UTC-07:00)

Daily predictions for brighter satellites

Satellite Brightness Start Highest point End
(mag) Time Altitude Azimuth Time Altitude Azimuth Time Altitude Azimuth
CZ-4C R/B 4.3 00:11:16 21° NE 00:11:16 21° NE 00:13:17 10° NE
Cosmos 1943 Rocket 4.1 00:28:43 24° NNE 00:28:43 24° NNE 00:30:56 10° NNE
ATLAS 5 CENTAUR R/B 4.1 00:29:04 23° N 00:29:04 23° N 00:32:04 10° NE
Cosmos 2297 Rocket 4.1 01:06:03 10° NNW 01:08:21 25° NNW 01:08:21 25° NNW
Cosmos 2369 Rocket 4.4 01:27:30 19° NW 01:27:30 19° NW 01:31:23 10° N
Cosmos 2227 Rocket 4.4 01:31:19 10° NNW 01:32:53 19° NW 01:32:53 19° NW
USA 215 4.0 01:33:02 10° E 01:39:16 49° N 01:45:31 10° WNW
ATLAS 3B R/B 3.4 01:45:39 53° NNE 01:45:39 53° NNE 01:51:09 10° NE
CZ-4C R/B 3.9 01:56:24 30° NNW 01:56:28 30° NNW 02:02:13 10° NE
Cosmos 1980 Rocket 4.3 02:01:00 19° ENE 02:01:00 19° ENE 02:03:14 10° NE
Cosmos 1943 Rocket 4.4 02:10:12 17° NW 02:10:15 17° NW 02:13:55 10° N
NOSS 3-2 (A) 4.5 02:12:41 43° NE 02:12:41 43° NE 02:17:10 10° NE
Cosmos 2263 Rocket 4.2 02:06:05 10° NNW 02:10:35 24° NE 02:12:41 19° ENE
ATLAS 5 CENTAUR R/B 4.5 02:10:32 12° NW 02:13:57 19° N 02:18:05 10° NE
USA 238 DEB 4.2 02:29:11 55° NNW 02:29:11 55° NNW 02:35:21 10° NE
USA 238 4.2 02:29:17 55° NNW 02:29:17 55° NNW 02:35:27 10° NE
Lacrosse 4 Rocket 4.4 02:42:19 10° N 02:44:40 15° NNE 02:47:04 10° ENE
S3M 4.4 02:52:11 58° NE 02:52:11 58° NE 02:57:11 10° NNE
NOSS 3-2 (C) 3.8 02:58:56 66° NNE 02:58:56 66° NNE 03:04:55 10° NE
SL-16 R/B 2.7 03:01:24 68° NNE 03:01:24 68° NNE 03:07:01 10° NNW
Cosmos 2322 Rocket 3.4 03:09:55 33° E 03:09:55 33° E 03:14:38 10° NE
Cosmos 1709 Rocket 4.4 03:05:17 10° N 03:11:25 58° ENE 03:12:10 54° ESE
SL-16 R/B 3.4 03:13:44 35° ESE 03:13:44 35° ESE 03:18:43 10° NE
ADEOS Rocket 3.6 03:10:42 10° NNE 03:16:00 40° E 03:16:16 40° ESE
CENTAUR R/B 2.8 03:17:17 58° ESE 03:17:17 58° ESE 03:23:54 10° NE
COSMOS 2455 3.8 03:17:55 38° NNW 03:17:55 38° NNW 03:23:14 10° NNE
USA 215 3.3 03:15:21 10° ESE 03:21:56 78° NNE 03:28:29 10° WNW
Cosmos 1697 Rocket 3.3 03:25:21 48° NNW 03:25:21 48° NNW 03:29:57 10° NNE
ARIANE 5 R/B 3.1 03:20:10 10° NNE 03:24:32 54° ENE 03:24:32 54° ENE
Cosmos 2292 Rocket 4.4 03:21:49 10° N 03:29:03 86° NNE 03:29:03 86° NNE
CZ-2D R/B 2.3 03:29:20 10° NNE 03:34:39 71° E 03:34:39 71° E
ATLAS 3B R/B 4.2 03:32:52 22° WNW 03:36:00 30° NNW 03:42:05 10° NE
Resurs 1-4 Rocket 2.2 03:33:51 10° NNE 03:38:45 73° NE 03:38:45 73° NE
Cosmos 2360 Rocket 4.0 03:39:41 19° SE 03:41:52 24° ESE 03:46:20 10° NE
Cosmos 1980 Rocket 2.4 03:42:46 60° NNW 03:42:46 60° NNW 03:47:56 10° NNE
NPP 4.4 03:37:21 10° N 03:41:30 42° NW 03:41:30 42° NW
Okean O Rocket 4.2 03:41:37 10° NE 03:44:28 16° E 03:47:18 10° SE
IRS-1D 3.6 03:41:30 10° NNE 03:45:47 66° NNE 03:45:47 66° NNE
Cosmos 2263 Rocket 2.3 03:49:34 10° NNW 03:54:17 63° NW 03:54:17 63° NW
UNKNOWN OBJECT B 4.1 03:51:35 10° NNE 03:54:00 36° NE 03:54:00 36° NE
Okean 3 4.2 03:57:15 52° NNE 03:57:15 52° NNE 04:00:31 10° NNE
Cosmos 1777 Rocket 4.4 03:53:54 10° NNW 03:59:12 63° ENE 04:04:27 10° SE
Cosmos 1378 Rocket 4.1 04:00:37 54° N 04:00:37 54° N 04:04:02 10° N
ATLAS 5 CENTAUR R/B 4.0 03:55:20 10° NW 04:00:20 31° NNE 04:05:48 10° E
Meteor 1-5 Rocket 4.0 03:55:03 10° NNW 04:00:02 75° NW 04:00:02 75° NW
NOSS 3-2 (A) 4.5 04:00:03 32° WNW 04:01:52 38° NNW 04:08:23 10° NE
Cosmos 1455 Rocket 4.2 04:01:40 10° N 04:05:51 42° ENE 04:09:09 15° SE
ADEOS II 4.0 04:01:59 10° NE 04:06:21 26° E 04:10:40 10° SSE
MOS 1 Rocket 4.2 04:06:08 10° NNE 04:10:46 44° E 04:12:33 30° SSE
Cosmos 1975 Rocket 3.0 04:15:28 78° E 04:15:29 78° E 04:19:50 10° NNE
Cosmos 1975 3.5 04:19:55 10° N 04:23:56 55° ENE 04:26:22 22° SSE
Lacrosse 4 Rocket 1.6 04:20:01 10° NNW 04:24:10 68° NE 04:28:23 10° SE
Tiangong 2 3.9 04:31:20 12° SE 04:31:20 12° SE 04:31:39 10° SE
Cosmos 1500 3.5 04:26:37 10° N 04:30:27 64° ENE 04:31:56 34° SSE
ADEOS 4.1 04:26:47 10° N 04:31:38 39° WNW 04:31:54 39° WNW
PSLV R/B 4.2 04:34:26 10° NNE 04:38:07 57° E 04:39:18 38° SSE
CZ-4B R/B 4.2 04:35:00 10° NNE 04:40:28 47° E 04:45:51 10° S
Cosmos 44 4.5 04:39:58 26° NW 04:40:54 28° NW 04:44:58 10° NNE
Cosmos 2315 Rocket 4.2 04:39:43 40° WSW 04:41:24 49° WNW 04:47:27 10° N
CZ-2D R/B 3.7 04:38:50 10° N 04:43:11 54° WNW 04:43:39 51° W
SL-16 R/B 3.9 04:46:29 21° WNW 04:46:29 21° WNW 04:49:49 10° NW
DNEPR-1 R/B 4.1 04:43:17 42° WSW 04:45:04 67° NW 04:49:58 10° NE
Cosmos 1346 Rocket 4.2 04:47:06 25° NW 04:47:06 25° NW 04:49:34 10° N
Cosmos 2327 Rocket 4.4 04:40:46 10° NNW 04:47:04 73° W 04:53:14 10° S
SL-08 ROCKET BODY 4.4 04:45:19 10° NNW 04:51:02 54° W 04:54:41 22° SSW
Cosmos 1610 Rocket 4.4 04:46:46 10° N 04:53:02 86° W 04:59:22 10° S
Cosmos 2322 Rocket 2.5 04:51:44 36° WSW 04:53:33 48° NW 04:59:01 10° NNE
ERBS 4.4 04:52:24 17° NW 04:54:10 24° N 04:57:06 10° ENE
Gblst 52 Del rocket 4.3 04:53:17 30° W 04:56:03 58° SSW 05:02:08 10° SE
Cosmos 1461 4.4 04:56:34 20° NW 04:57:18 21° NNW 05:00:25 10° NNE
SL-16 R/B 2.6 04:55:36 33° WSW 04:57:37 47° NW 05:03:07 10° NNE
ADEOS Rocket 3.5 04:56:27 10° N 05:01:32 35° WNW 05:03:13 29° W
Nadezhda 1 Rocket 3.9 04:55:30 10° S 05:01:34 90° E 05:07:40 10° N
COSMOS 2428 3.6 04:56:53 10° S 05:02:16 46° ESE 05:07:42 10° NE
CZ-2C R/B 3.6 04:58:09 10° SSE 05:02:45 86° WSW 05:07:18 10° NNW
Genesis I 3.6 05:02:41 41° W 05:03:34 50° NW 05:07:26 10° NNE
ARIANE 5 R/B 3.7 05:00:00 10° N 05:04:00 24° WNW 05:04:53 23° WNW
USA 215 3.6 04:59:05 10° SSE 05:05:16 42° SW 05:11:27 10° WNW
MTI 3.7 05:05:05 24° S 05:06:52 68° WSW 05:10:11 10° NNW
SL-8 R/B 3.6 05:05:35 32° W 05:07:48 78° S 05:12:35 10° E
CENTAUR R/B 3.3 05:04:27 25° W 05:08:01 45° NNW 05:15:01 10° NE
Cosmos 2219 Rocket 3.9 05:04:08 10° SSE 05:08:58 31° ESE 05:13:50 10° NE
Cosmos 1544 Rocket 4.0 05:05:31 10° NNW 05:09:40 39° W 05:11:13 29° SW
Cosmos 2074 Rocket 4.2 05:03:45 10° NNW 05:09:42 47° W 05:15:36 10° SSW
Cosmos 2341 Rocket 4.2 05:03:55 10° N 05:10:14 76° E 05:16:27 10° SSE
CZ-4B R/B 2.5 05:09:10 10° N 05:12:47 75° WNW 05:14:46 25° SSW
IRS-1C Rocket 4.1 05:08:05 10° NNE 05:13:23 88° ESE 05:18:38 10° SSW
Cosmos 1844 Rocket 2.6 05:07:49 10° NNW 05:13:27 84° WSW 05:19:01 10° SSE
CZ-2D R/B 3.5 05:10:16 10° N 05:14:25 22° WNW 05:15:59 20° W
Cosmos 1812 3.4 05:15:17 32° W 05:15:57 34° WNW 05:19:32 10° N
Cosmos 1570 Rocket 4.2 05:11:47 10° SSW 05:16:58 71° ESE 05:22:12 10° NNE
Resurs 1-4 Rocket 3.6 05:14:43 10° NNW 05:18:25 20° WNW 05:19:50 18° WNW
Cosmos 1898 Rocket 3.9 05:13:45 10° NNW 05:18:58 67° ENE 05:24:07 10° SSE
Okean O Rocket 1.6 05:16:52 10° N 05:21:16 64° WNW 05:24:46 16° SSW
Cosmos 2278 Rocket 2.9 05:18:15 10° NNW 05:23:53 58° NE 05:29:27 10° SE
Cosmos 2360 Rocket 2.2 05:21:29 20° SW 05:25:25 64° WNW 05:31:04 10° NNE
Cosmos 1980 Rocket 4.0 05:24:32 12° WNW 05:27:29 17° NW 05:31:12 10° N
ATLAS 3B R/B 4.4 05:23:05 10° NW 05:28:56 26° N 05:34:32 10° ENE
Cosmos 1340 3.0 05:27:50 22° SW 05:29:53 45° WNW 05:33:34 10° N
Okean-O 3.5 05:27:05 10° NNE 05:31:26 51° E 05:35:46 10° S
Cosmos 1666 2.7 05:29:04 10° N 05:32:57 88° W 05:36:50 10° S
Meteor 2-4 Rocket 4.3 05:27:59 10° S 05:33:28 59° E 05:38:50 10° NNE
Cosmos 2237 Rocket 4.1 05:29:09 10° SSE 05:34:01 30° ESE 05:38:55 10° NE
Cosmos 1743 2.8 05:31:41 10° NNW 05:35:28 51° W 05:39:12 10° S
PAYLOAD B 4.3 05:30:24 10° N 05:35:57 63° WNW 05:41:29 10° SSW
COSMO-SKYMED 1 3.8 05:31:59 10° SE 05:36:08 46° ENE 05:40:19 10° N
Meteor 1-31 Rocket 3.3 05:32:47 10° NNE 05:36:35 59° E 05:40:20 10° S
CZ-4C R/B 4.0 05:31:09 10° NW 05:37:24 40° NNE 05:44:24 10° E
Cosmos 2263 Rocket 4.1 05:35:30 10° WNW 05:35:52 11° WNW 05:35:52 11° WNW
Cosmos 1455 Rocket 4.2 05:40:02 10° NW 05:43:27 22° W 05:46:11 13° SW
ATLAS 5 CENTAUR R/B 2.4 05:39:51 10° NW 05:45:44 89° SW 05:52:10 10° SE
ADEOS II 2.3 05:41:15 10° N 05:46:22 53° WNW 05:51:28 10° SW
Cosmos 1025 Rocket 3.5 05:43:22 10° S 05:47:42 65° E 05:52:05 10° NNE
EO 1 Del DPAF 4.4 05:45:37 10° SSW 05:48:44 23° W 05:51:53 10° NW
MOS 1 Rocket 4.4 05:44:46 10° N 05:48:48 26° WNW 05:51:52 14° WSW
Cosmos 2333 Rocket 3.1 05:44:55 10° S 05:50:25 51° ESE 05:55:58 10° NE
Cosmos 1937 Rocket 3.6 05:45:55 10° NNW 05:51:17 88° ENE 05:56:36 10° SSE
Cosmos 1959 Rocket 4.5 05:52:52 10° N 05:59:02 90° E 06:05:09 10° S
Cosmos 2322 4.2 05:53:51 11° WSW 05:59:04 44° NW 06:04:35 10° NNE
USA 116 4.3 05:56:28 10° S 06:00:34 45° W 06:05:12 10° NNW
Cosmos 2298 Rocket 4.0 05:56:00 10° NNW 06:01:18 66° WSW 06:06:34 10° S
Lacrosse 4 Rocket 2.9 05:59:50 10° WNW 06:02:24 16° WSW 06:05:00 10° SW
Tiangong 2 3.2 06:03:27 10° SW 06:05:05 14° SSW 06:06:46 10° SSE
SJ-6F 4.5 06:01:15 10° NNE 06:05:22 85° ESE 06:09:27 10° SSW
Meteor 1-13 Rocket 4.4 06:02:04 10° SSW 06:07:27 52° WNW 06:12:58 10° N
Cosmos 1238 Rocket 3.1 06:05:13 10° SW 06:07:50 27° WNW 06:10:29 10° NNW
Aureole 2 Rocket 3.8 06:04:49 10° S 06:08:16 42° ESE 06:11:27 10° NE
Meteor PRIRODA 4.1 06:04:57 10° N 06:08:32 44° WNW 06:12:07 10° SW
Iridium 2 3.7 06:06:12 10° N 06:09:59 65° W 06:13:47 10° S
Cosmos 1437 3.3 06:07:05 10° S 06:10:20 65° E 06:13:35 10° NNE
Cosmos 2366 rocket 4.1 06:03:57 10° N 06:10:20 85° W 06:16:43 10° S
Cosmos 1844 4.2 06:10:12 10° NW 06:15:31 39° WSW 06:20:45 10° S
Timation 1 Rocket 4.4 06:09:29 10° NNW 06:15:33 90° WSW 06:21:33 10° SSE
Cosmos 1814 Rocket 4.4 06:11:00 10° SSW 06:16:10 69° ESE 06:21:18 10° NNE
Cosmos 2333 4.3 06:12:26 10° SW 06:18:02 61° WNW 06:23:44 10° NNE
Cosmos 2058 Rocket 3.2 06:13:56 10° N 06:18:29 85° E 06:22:57 10° S
CZ-4B R/B 4.0 06:15:52 10° N 06:20:52 33° WNW 06:25:48 10° WSW
